Location: Chrome
(40.5765°N, 74.2163°W)
Time: 05:49:22
(UTC+00:00)

Cosmos 1703 Rocket - Pass Details

Date: 06 December 2019
Orbit: 604 x 635 km, 82.5° (Epoch: 26 January)

Event Time Altitude Azimuth Distance (km) Brightness Sun altitude
Rises 23:44:58 0° 199° (SSW) 2,900 7.4 -25.0°
Reaches altitude 10° 23:47:14 10° 204° (SSW) 2,001 6.5 -25.4°
Maximum altitude 23:51:34 51° 280° (W) 793 4.3 -26.2°
Enters shadow 23:53:16 33° 338° (NNW) 1,074 4.8 -26.5°
